P/2012 WA34 ( Lemmon-PanSTARRS )

Japanese version
Home page
Updated on May 7, 2015

---------------------------------------------------------------------

* Profile

Discovery Date November 26, 2012 and January 7, 2013
Magnitude 20.5 mag, 21.1 mag
Discoverer A. Boattini (Mount Lemmon Survey), Pan-STARRS 1 telescope (Haleakala)

* Orbital Elements

Epoch 2013 Jan. 28.0 TT = JDT 2456320.5
T 2013 Jan. 24.75885 TT                                 MPC
q   3.1733727            (2000.0)            P               Q
n   0.09354899     Peri.  353.16236     +0.03970492     -0.99354539
a   4.8059212      Node    94.52335     +0.92173259     -0.00463987
e   0.3396952      Incl.    6.11887     +0.38578823     +0.11334033
P  10.5
From 30 observations 2011 Sept. 26-2013 Jan. 18, mean residual 0".4.

* Magnitudes Graph

        m1 = 13.5 + 5 log d + 10.0 log r

---------------------------------------------------------------------

The orbital elements are published on M.P.E.C. 2013-C52.
The magnitudes graphs are made with Comet for Windows.

---------------------------------------------------------------------

Copyright(C) Seiichi Yoshida (comet@aerith.net). All rights reserved.